{"data":{"norad_id":63666,"intl_designator":"2025-085C","name":"STARLINK-11664 [DTC]","alt_names":[],"object_type":"PAYLOAD","status":"ACTIVE","operator":null,"country":"US","launch_date":"2025-04-28","launch_site_code":"AFETR","launch_vehicle":null,"mission":null,"orbit_class":"UNKNOWN","rcs_meters":null,"size_class":null,"mass_kg":null,"dimensions":null,"purposes":["comms"],"wikipedia_slug":null,"has_3d_model":false,"image_url":null,"decayed_at":null,"tle_current":{"epoch":"2026-05-26T10:37:11.633664Z","epoch_age_seconds":10266421,"freshness":"OLD","line1":"1 63666U 25085C   26146.44249576  .09495563  88137-5  32906-2 0  9992","line2":"2 63666  42.9801 160.3887 0012795 151.7638 208.3945 16.24111503 62587","mean_motion":16.24111503,"eccentricity":0.0012795,"inclination_deg":42.9801,"raan_deg":160.3887,"arg_perigee_deg":151.7638,"mean_anomaly_deg":208.3945,"bstar":0.0032906,"rev_number":6258,"period_min":88.663863123935,"perigee_km":199.98480411709,"apogee_km":216.83978376028,"semimajor_km":6586.5492939387,"source":"CELESTRAK","updated_at":"2026-05-27T09:00:41.949353Z"}}}